Regional Weather Roundup
Issued by NWS

Home | Current Version | Previous Version | Text Only | Print | Product List | Glossary Off
Versions: 1 2 3 4 5 6 7 8 9 10 11 12 13 14 15 16 17 18 19 20 21 22 23 24 25 26 27 28 29 30 31 32 33 34 35 36 37 38 39 40 41 42 43 44 45 46 47 48 49 50

000
ASUS43 KLOT 291203
RWRIL

ILLINOIS REGIONAL WEATHER ROUNDUP
NATIONAL WEATHER SERVICE CHICAGO/ROMEOVILLE IL
700 AM CDT THU SEP 29 2016

NOTE: "FAIR" INDICATES FEW OR NO CLOUDS BELOW 12,000 FEET WITH NO
SIGNIFICANT WEATHER AND/OR OBSTRUCTIONS TO VISIBILITY.

* THESE STATIONS ARE NOT UNDER NWS QUALITY CONTROL. THEY ALSO MAY NOT
  REPORT WEATHER SUCH AS PRECIPITATION OR FOG.

ILZ001-002-007-009-015-016-024-291300-
NORTHWEST ILLINOIS

CITY           SKY/WX    TMP DP  RH WIND       PRES   REMARKS
MOLINE         CLOUDY    55  50  83 N9        30.23R
6HR MIN TEMP:  54; 6HR MAX TEMP:  56;

$$

ILZ003-004-008-010-011-017-018-291300-
NORTH CENTRAL ILLINOIS

CITY           SKY/WX    TMP DP  RH WIND       PRES   REMARKS
ROCKFORD       CLOUDY    58  52  80 N20       30.23R
6HR MIN TEMP:  56; 6HR MAX TEMP:  59;

FREEPORT*      CLOUDY    54  51  89 N18       30.25R
ROCHELLE*      CLOUDY    57  53  86 N14G20    30.19R
$$

ILZ005-006-012>014-019>023-291300-
NORTHEAST ILLINOIS

CITY           SKY/WX    TMP DP  RH WIND       PRES   REMARKS
CHICAGO-OHARE  CLOUDY    62  56  80 N18G25    30.12R
6HR MIN TEMP:  59; 6HR MAX TEMP:  62; 6HR PCP: TRACE;

CHICAGO-MIDWAY CLOUDY    64  56  75 N13       30.11R
6HR MIN TEMP:  60; 6HR MAX TEMP:  64;

AURORA         CLOUDY    63  55  75 N16G33    30.14R
6HR MIN TEMP:  58; 6HR MAX TEMP:  63;

LANSING*       LGT RAIN  60  58  94 NE6       30.09S
WAUKEGAN       CLEAR     59  56  89 N12G22    30.15R
6HR MIN TEMP:  58; 6HR MAX TEMP:  61;

DUPAGE AIRPORT CLOUDY    60  55  83 N16       30.14R
6HR MIN TEMP:  57; 6HR MAX TEMP:  61;

KANKAKEE*      CLOUDY    57  56  94 CALM      30.10R
WHEELING       CLOUDY    62  55  77 N14G21    30.15R
6HR MIN TEMP:  59; 6HR MAX TEMP:  62;

NORTHERLY ISL    N/A     62  56  80 MISG        N/A
$$

LMZ740>746-291300-
SOUTHERN LAKE MICHIGAN

STATION/POSITION SKY/WX   TEMP    WIND        PRES    VSBY  WAVE
                          AIR SEA DIR/SP/G                  HT/PER
                          (F)     (DEG/KT/KT) (MB)    (MI)  (FT/S)
SOUTHERN BUOY              65 69   50/ 23/ 27 1019.1          7/ 7
WILMETTE HARBOR            62 56   50/ 16/ 21   N/A           8/ 7
HARRISON CRIB              65      30/ 20/ 23   N/A
BURNHAM HARBOR             62      30/  9/ 19   N/A
CALUMET HARBOR             62      20/ 14/ 19 1018.7R
BURNS HARBOR               62      50/ 20/ 21 1019.0R
MICHIGAN CITY              60      30/ 21/ 22   N/A
MICHIGAN CITY 6N           62 65   50/ 16/ 21   N/A           6/ 7
ST. JOSEPH                 60 64   30/ 17/ 23 1018.6R         5/ 7
$$

ILZ025>027-034>036-040-047-049-050-058-095>099-291300-
WEST-CENTRAL ILLINOIS

CITY           SKY/WX    TMP DP  RH WIND       PRES   REMARKS
QUINCY         CLEAR     51  49  92 NW12      30.21R
GALESBURG*     CLOUDY    53  50  90 N14G22    30.21S
MACOMB*        CLOUDY    52  50  93 N10       30.23R
$$

ILZ028>032-037-038-041>044-048-051>054-059>061-291300-
CENTRAL ILLINOIS

CITY           SKY/WX    TMP DP  RH WIND       PRES   REMARKS
BLOOMINGTON    LGT RAIN  57  54  89 N15       30.11R
DECATUR        CLOUDY    59  53  80 N17       30.08R
PEORIA         CLOUDY    57  54  89 N10G20    30.15R
6HR MIN TEMP:  54; 6HR MAX TEMP:  57;

LINCOLN*       CLOUDY    57  54  88 N8G16     30.12R
SPRINGFIELD    CLOUDY    56  51  84 N13G21    30.14R
6HR MIN TEMP:  54; 6HR MAX TEMP:  56;

TAYLORVILLE    NOT AVBL
$$

ILZ033-039-045-046-055>057-062-063-291300-
EAST-CENTRAL ILLINOIS

CITY           SKY/WX    TMP DP  RH WIND       PRES   REMARKS
CHAMPAIGN      CLOUDY    58  55  90 N12       30.06R
MATTOON        RAIN      55  53  93 N7        30.04R FOG
$$

ILZ079-100>102-291300-
SOUTHWEST ILLINOIS

CITY           SKY/WX    TMP DP  RH WIND       PRES   REMARKS
ALTON          PTCLDY    52  48  87 NW10G18   30.13S
BELLEVILLE     CLEAR     54  51  90 NW9       30.11R
CAHOKIA*       CLEAR     56  49  77 NW10      30.14R
SPARTA*        MOCLDY    52  50  92 NW6       30.13R
$$

ILZ064>066-069>071-074>076-080>082-084>086-088>090-092>094-291300-
SOUTH-CENTRAL ILLINOIS

CITY           SKY/WX    TMP DP  RH WIND       PRES   REMARKS
CARBONDALE     MOCLDY    53  51  93 NW8       30.10R
6HR MIN TEMP:  51; 6HR MAX TEMP:  53;

MARION         CLOUDY    55  52  88 NW14      30.10R
MT. VERNON     CLOUDY    55  46  71 CALM      30.08R
CENTRALIA*     CLOUDY    55  52  90 NW10      30.08R
SALEM*         RAIN      55  52  88 NW9       30.08R
METROPOLIS*    MOCLDY    52  49  91 CALM      30.09S
$$

ILZ067-068-072-073-078-083-087-091-291300-
SOUTHEAST ILLINOIS

CITY           SKY/WX    TMP DP  RH WIND       PRES   REMARKS
LAWRENCEVILLE  LGT RAIN  55  53  93 NW7       30.03R FOG
FLORA*         CLOUDY    57  53  86 NW8       30.06R
HARRISBURG*    CLOUDY    55  52  92 NW6       30.07S
ROBINSON*      CLOUDY    55  54  99 N5        30.04R
$$

ABBREVIATIONS USED IN REMARKS
   TC - TEMPERATURE IN CELSIUS
  WCI - WIND CHILL INDEX
   HX - HEAT INDEX
  VSB - VISIBILITY
$$




USA.gov is the U.S. government's official web portal to all federal, state and local government web resources and services.